Wetbulb
59.30 59.86 60.04 60.11 59.79 59.73 59.62 59.73 59.65 59.76 60.07 60.15 60.33 60.30 59.83 58.67 58.18 61.60 61.48 62.73 62.53 64.25 65.44 63.55 61.43 60.13 60.10 58.71 61.17 61.85 57.29 57.12 57.20 56.95 59.63 63.91 63.26 66.10 67.55 64.81 64.75 65.93 65.97 70.02 71.92
58.92 59.32 59.70 59.87 59.59 59.23 59.32 59.28 59.55 59.55 59.87 59.93 59.99 59.78 59.47 58.28 61.68 62.97 62.17 66.44 65.94 65.95 62.18 60.29 57.68 58.62 57.23 57.70 59.28 57.81 57.79 57.38 59.22 59.81 61.28 62.92 63.62 64.75 64.76 63.68 64.17 64.98 69.43 71.42 71.14
58.40 59.22 59.53 59.39 59.31 58.85 58.93 58.91 59.14 59.34 59.55 59.47 59.53 59.43 59.26 59.80 62.16 60.01 65.48 66.32 66.83 67.05 62.41 60.70 59.15 57.98 55.85 57.97 58.16 57.77 56.86 58.76 58.74 59.15 61.83 63.02 63.84 65.07 63.70 61.93 64.81 64.27 66.98 69.44 69.53
57.94 58.66 59.11 59.02 58.67 58.59 58.70 58.86 58.93 59.41 59.21 59.16 59.22 59.59 59.31 63.02 55.61 62.33 67.55 66.64 66.72 64.84 60.88 57.98 56.87 55.17 54.99 55.05 58.25 55.86 59.87 59.04 58.81 59.90 61.68 62.53 65.28 62.97 63.76 63.08 66.47 66.59 67.00 67.94 67.49
58.03 58.25 58.73 58.51 58.27 58.24 58.26 58.54 58.54 58.55 58.50 58.71 59.84 59.50 61.67 61.00 58.95 65.98 68.68 66.95 61.47 60.79 57.79 56.09 54.95 55.01 54.09 56.23 57.24 56.21 59.36 59.44 59.19 58.72 62.40 64.30 63.30 63.42 63.69 65.14 66.83 66.29 66.12 65.82 65.93
57.68 58.02 58.21 58.17 57.97 57.84 57.77 57.49 57.21 57.45 58.01 59.37 60.16 58.44 63.11 55.65 65.34 63.40 61.55 60.82 59.75 58.16 57.43 56.95 55.61 56.90 55.96 56.24 56.20 57.68 59.22 58.97 59.09 59.27 60.74 62.72 62.90 63.94 65.09 66.28 65.71 65.11 65.11 65.41 65.39
57.59 57.62 57.74 57.55 57.63 57.59 57.39 56.79 56.65 57.00 58.25 60.00 59.64 62.38 60.41 57.50 64.50 63.07 62.11 60.74 60.39 58.23 56.12 58.08 58.75 56.34 57.02 55.04 58.16 57.61 56.30 57.89 58.23 60.25 59.28 61.16 60.85 61.60 66.30 66.88 65.05 64.34 64.69 64.99 65.91
57.61 57.36 57.42 57.31 57.40 57.40 57.14 56.67 56.48 57.41 59.24 59.59 59.98 63.26 58.86 61.27 65.16 64.51 63.96 61.16 59.98 59.37 58.33 59.11 59.83 57.97 56.86 58.34 56.13 54.55 55.69 53.66 57.73 59.93 60.22 59.35 57.76 62.21 66.07 65.92 64.46 64.28 64.46 64.70 65.93
57.49 57.17 57.10 57.11 56.94 57.18 56.47 55.80 56.84 58.86 59.99 60.03 62.64 62.97 56.98 61.67 61.16 64.11 62.14 58.22 57.43 58.15 58.43 58.43 58.44 55.71 56.38 53.57 52.13 53.66 51.30 53.21 55.71 59.71 61.05 59.95 57.55 62.04 64.87 65.25 64.58 64.63 64.75 64.52 65.79
57.16 56.84 56.71 56.51 56.64 56.22 55.18 55.33 59.37 57.69 59.74 63.45 61.98 57.58 58.36 56.02 61.37 62.01 61.18 60.12 55.48 55.72 55.79 56.07 55.33 53.21 53.45 51.58 47.23 50.28 51.67 54.02 53.73 57.73 59.88 58.52 58.69 62.87 63.93 64.05 64.53 64.80 65.11 65.34 65.73
57.38 56.89 56.30 56.12 56.10 55.28 57.46 60.29 57.45 58.36 58.52 55.04 55.90 55.11 56.30 59.35 60.75 60.48 61.21 58.58 56.71 54.73 51.82 54.49 51.83 49.99 51.68 52.76 53.11 53.65 53.37 53.09 55.24 57.89 58.07 58.30 58.03 60.13 63.16 63.64 63.60 64.79 65.10 65.77 66.26
57.20 56.89 56.56 56.00 55.78 55.08 59.09 55.29 53.93 54.85 51.28 56.43 56.28 56.66 57.92 57.92 55.14 58.06 61.40 55.63 54.59 50.67 53.52 52.98 50.37 53.62 53.94 53.39 52.08 51.97 51.56 52.55 55.50 56.97 57.65 57.68 57.57 59.65 61.28 62.68 63.45 63.65 64.67 65.37 66.67
56.55 56.22 55.97 55.63 55.16 57.64 58.22 54.78 57.40 57.21 52.96 55.33 55.96 55.08 56.18 57.82 55.23 56.06 59.35 57.37 54.34 52.15 52.49 51.68 53.07 54.32 52.31 51.83 50.61 51.30 51.10 52.25 52.82 54.84 55.76 56.01 55.77 58.05 59.98 61.52 63.63 64.29 65.14 65.70 66.40
56.53 55.95 55.57 54.77 55.28 59.54 57.01 57.41 56.85 59.66 50.60 52.45 52.93 54.57 55.38 56.54 53.86 59.28 60.25 58.49 55.88 52.90 53.29 52.51 54.55 51.59 51.70 50.67 51.83 48.80 52.19 52.01 52.55 52.84 48.33 54.51 48.42 55.68 58.42 58.90 60.34 61.54 62.68 64.08 65.76
56.55 56.26 55.75 54.55 59.54 57.19 57.77 59.08 56.83 59.38 43.60 53.71 54.28 58.78 55.89 53.64 55.01 55.71 60.40 58.55 54.39 53.71 53.08 51.79 51.73 50.37 50.09 50.86 52.45 50.34 53.06 51.77 51.61 52.03 51.69 51.89 49.91 51.91 56.06 54.34 56.65 58.58 59.80 61.90 63.80
56.32 56.16 55.51 59.76 60.88 60.40 59.93 58.46 57.14 48.27 41.81 51.02 53.99 52.31 51.34 53.04 54.44 56.31 57.13 58.68 58.44 55.08 53.79 52.90 53.77 52.75 51.91 52.96 52.53 53.73 51.55 51.73 51.76 50.23 45.88 50.53 50.37 50.89 52.85 55.02 56.21 58.47 59.27 60.32 61.83
55.89 55.73 55.42 59.71 57.75 61.05 59.48 54.32 47.10 43.67 51.16 50.00 50.66 52.35 50.51 50.06 52.14 53.90 53.65 53.37 51.99 49.69 50.22 52.62 51.82 52.88 53.72 51.05 53.54 52.80 51.41 46.20 44.87 44.55 43.80 50.87 49.35 51.85 55.22 56.61 57.45 58.05 58.70 60.01 61.09
55.26 53.76 56.61 60.12 61.76 59.95 58.33 49.46 42.39 47.36 48.02 52.80 51.45 51.89 50.34 51.30 51.59 51.76 52.13 50.98 53.90 53.13 50.97 49.02 47.01 51.39 52.91 52.07 51.40 51.72 51.57 47.55 43.67 44.83 46.90 51.52 47.16 50.37 56.37 57.75 57.28 58.15 59.09 59.55 60.61
53.83 59.02 59.49 61.34 60.55 61.68 53.53 43.87 45.74 48.53 49.85 49.55 51.65 49.86 49.97 51.42 51.39 51.01 51.13 50.87 52.91 53.72 50.11 48.99 48.81 52.62 52.59 53.55 53.24 51.73 50.18 53.63 49.91 50.78 47.77 49.78 52.78 54.54 56.61 56.66 57.46 57.24 59.15 60.25 62.30
58.11 58.65 58.43 61.32 62.46 58.99 49.71 43.87 48.54 49.48 50.08 51.14 49.13 51.25 48.92 49.74 49.87 50.32 50.21 52.49 51.58 53.73 55.71 52.86 48.52 52.03 52.82 54.18 54.37 53.21 55.28 49.69 49.79 43.92 43.18 48.20 50.05 50.28 54.27 55.51 56.72 57.61 58.24 62.44 66.67
56.92 54.35 59.24 61.34 60.43 54.10 45.79 46.84 48.76 50.75 50.52 50.52 50.98 50.41 51.82 50.29 50.97 50.18 51.51 54.00 53.76 53.11 54.85 54.21 52.37 50.91 52.80 51.41 50.80 51.64 50.23 51.47 51.82 50.12 46.06 45.34 48.81 55.77 55.83 56.83 57.28 57.66 59.32 61.74 66.85
55.94 50.35 59.45 59.59 50.09 51.16 48.08 49.40 46.24 49.76 51.68 51.71 52.49 52.72 51.72 51.73 51.19 50.98 51.75 53.83 56.53 56.05 52.32 54.85 53.70 48.99 50.84 53.92 54.92 53.91 52.32 53.39 48.79 48.11 49.96 48.52 48.30 56.99 57.60 57.46 58.74 59.05 60.14 64.15 68.52
53.16 53.74 58.69 58.09 47.02 48.02 50.48 48.99 49.72 49.92 50.49 50.58 50.80 53.11 54.28 52.81 51.30 52.25 55.14 57.31 58.20 56.46 55.59 56.21 52.20 47.77 48.88 52.57 54.22 51.49 53.04 53.62 52.95 53.88 49.59 46.75 48.75 56.83 58.13 58.70 60.81 60.63 62.51 65.23 68.30
53.22 48.38 53.49 54.62 54.30 52.07 49.51 48.52 48.41 51.71 50.93 51.47 51.77 53.32 53.33 52.23 55.73 53.45 53.89 55.25 57.34 57.29 55.91 58.21 54.81 51.34 45.20 49.54 53.20 50.80 51.74 52.94 52.72 49.54 49.90 50.04 51.42 54.57 57.40 59.22 61.08 63.70 65.57 66.63 68.63
53.85 50.47 53.15 47.81 49.95 51.93 52.35 50.19 47.98 47.61 51.26 52.29 51.26 51.85 52.85 51.32 52.32 53.01 54.55 54.43 55.20 54.00 56.14 57.00 51.37 52.32 51.87 51.44 52.09 51.10 51.20 51.69 51.12 52.35 49.72 51.10 51.54 54.35 57.37 58.80 61.77 64.91 66.32 66.70 67.82
51.42 51.17 53.75 53.46 52.43 51.06 48.58 50.31 48.56 49.72 51.08 49.85 50.07 51.48 53.26 52.90 53.28 52.39 54.48 54.27 53.34 54.91 55.59 55.64 51.62 52.04 49.80 50.39 50.18 49.04 50.50 51.18 51.85 52.21 52.22 52.45 52.32 59.30 61.35 61.85 63.11 65.01 66.22 66.75 65.28
57.17 56.52 55.13 50.12 51.99 50.10 50.66 50.82 50.72 52.16 52.85 53.32 52.37 51.96 51.02 54.45 55.43 57.64 57.88 57.42 56.62 55.24 54.82 53.78 52.80 49.96 46.49 49.77 49.27 46.81 50.18 51.44 52.72 54.16 53.57 51.98 57.11 60.68 60.22 61.24 63.81 64.62 66.99 64.35 63.78
MSLP
1018.76 1018.45 1018.02 1017.51 1017.04 1016.73 1016.06 1015.47 1014.75 1014.13 1013.63 1013.15 1012.92 1012.53 1012.29 1012.13 1011.99 1011.23 1008.28 1007.42 1007.17 1007.71 1008.03 1006.94 1006.47 1005.71 1005.03 1003.87 1003.14 1002.37 1000.09 997.83 997.75 998.46 998.49 999.93 1000.25 1001.73 1002.82 1003.68 1004.13 1005.09 1005.15 1006.56 1008.48
1018.80 1018.32 1017.81 1017.39 1016.83 1016.33 1015.93 1015.28 1014.44 1014.03 1013.38 1012.88 1012.65 1012.24 1012.03 1011.98 1010.73 1008.09 1007.60 1007.22 1007.57 1007.74 1007.35 1006.10 1005.41 1004.99 1004.13 1003.23 1002.53 1001.56 999.30 997.99 998.78 998.98 998.73 999.45 1000.13 1001.44 1002.21 1003.31 1004.41 1005.48 1005.97 1007.28 1008.42
1018.67 1018.20 1017.81 1017.27 1016.82 1016.22 1015.62 1015.05 1014.24 1013.63 1012.94 1012.50 1012.24 1011.97 1011.81 1011.63 1008.75 1006.09 1007.40 1007.44 1007.76 1007.63 1006.13 1005.62 1004.79 1004.45 1003.41 1002.43 1001.91 1001.08 999.43 998.88 999.57 999.96 999.55 999.14 1000.04 1001.29 1001.53 1001.92 1003.34 1005.18 1006.36 1007.49 1008.27
1018.48 1018.19 1017.59 1017.04 1016.40 1015.78 1015.22 1014.68 1014.04 1013.39 1012.75 1012.28 1011.87 1011.78 1011.57 1010.60 1006.49 1006.55 1007.44 1007.61 1007.86 1007.22 1005.94 1005.27 1004.73 1004.00 1002.83 1001.91 1001.39 1000.73 999.78 999.73 999.59 999.95 999.74 999.21 999.88 1001.30 1001.34 1002.36 1003.46 1005.14 1006.34 1007.30 1007.92
1018.46 1017.98 1017.44 1017.11 1016.49 1015.55 1014.85 1014.28 1013.68 1013.06 1012.45 1012.05 1011.62 1011.68 1011.19 1008.06 1005.22 1006.93 1007.60 1007.79 1007.62 1007.08 1005.53 1004.87 1004.30 1003.63 1002.46 1001.53 1001.17 1000.84 999.78 999.88 999.91 1000.02 999.69 999.43 999.85 1000.57 1001.31 1002.59 1003.93 1005.23 1006.23 1006.95 1007.51
1018.24 1017.76 1017.38 1016.84 1016.16 1015.51 1014.79 1014.00 1013.39 1012.82 1012.21 1011.83 1011.40 1011.51 1009.61 1006.26 1005.30 1006.33 1006.62 1007.19 1006.19 1005.76 1005.00 1004.46 1003.72 1003.38 1002.27 1001.25 1000.97 1000.79 1000.11 999.67 999.77 999.67 999.86 999.60 999.82 1000.71 1001.23 1002.74 1003.87 1005.10 1005.88 1006.62 1007.14
1018.13 1017.71 1017.15 1016.55 1015.85 1015.01 1014.25 1013.60 1013.00 1012.43 1011.87 1011.50 1011.24 1010.72 1007.85 1005.31 1005.20 1005.94 1006.06 1006.08 1005.56 1005.16 1004.44 1004.11 1003.51 1003.32 1003.12 1001.78 1001.23 1000.78 1000.42 1000.01 999.69 999.52 999.55 999.92 999.65 1000.29 1000.86 1002.41 1003.55 1004.68 1005.44 1006.19 1006.88
1017.91 1017.54 1017.04 1016.55 1015.68 1014.82 1013.74 1012.98 1012.38 1011.89 1011.48 1011.33 1011.22 1009.86 1006.16 1005.14 1005.04 1005.44 1005.52 1005.30 1005.30 1005.05 1004.46 1004.28 1004.39 1003.69 1002.82 1001.85 1001.48 1001.18 1000.70 999.39 998.89 999.19 999.46 999.91 998.58 999.49 1000.72 1001.94 1003.02 1004.09 1004.85 1005.62 1006.37
1018.00 1017.53 1016.92 1016.17 1015.47 1014.50 1013.20 1012.26 1011.81 1011.49 1011.28 1011.13 1010.43 1008.42 1004.78 1006.01 1005.17 1004.96 1005.10 1004.83 1005.09 1005.07 1005.05 1004.86 1004.62 1003.71 1002.90 1002.17 1001.35 1000.69 999.65 999.22 998.10 998.97 998.82 999.38 998.68 999.06 1000.33 1001.25 1002.19 1003.47 1004.20 1004.88 1005.68
1017.91 1017.50 1016.86 1016.09 1015.15 1013.94 1012.58 1011.10 1010.71 1011.31 1010.85 1009.65 1008.47 1007.06 1004.78 1003.97 1004.25 1004.69 1004.93 1004.79 1004.73 1004.79 1004.81 1004.73 1003.87 1002.87 1002.24 1001.43 999.91 999.38 999.41 998.40 998.10 998.51 999.17 998.92 998.31 998.81 1000.03 1000.65 1001.28 1002.37 1003.43 1004.16 1004.75
1017.57 1017.12 1016.60 1015.88 1014.96 1013.63 1012.58 1009.10 1010.19 1009.89 1007.96 1006.87 1005.85 1004.49 1003.85 1003.88 1004.68 1004.55 1004.66 1004.54 1004.27 1004.39 1003.64 1003.57 1002.61 1001.41 1000.65 1000.56 999.83 998.80 998.53 998.26 997.60 997.90 998.88 998.79 998.60 998.20 999.31 1000.28 1000.60 1001.11 1002.29 1003.11 1003.80
1017.26 1016.83 1016.25 1015.54 1014.69 1013.56 1012.28 1010.69 1011.37 1011.13 1008.56 1006.23 1005.25 1004.79 1004.44 1004.09 1003.62 1003.64 1004.25 1004.02 1003.58 1003.23 1003.04 1002.51 1001.57 1000.64 1000.56 1000.20 1000.13 999.75 999.37 998.33 997.85 998.09 998.95 998.75 998.43 998.31 998.44 999.30 999.94 1000.23 1001.07 1001.88 1002.71
1017.06 1016.65 1016.09 1015.28 1014.38 1013.27 1011.53 1011.48 1011.07 1010.52 1008.55 1004.37 1003.89 1003.68 1003.81 1004.24 1003.04 1002.92 1003.62 1003.15 1002.75 1002.37 1001.83 1001.07 1000.20 1000.63 1000.94 1001.00 1000.92 1000.26 999.55 999.03 998.51 998.79 999.49 999.21 998.34 998.27 998.35 998.66 998.88 999.66 1000.02 1000.44 1001.21
1016.88 1016.50 1015.93 1015.01 1014.46 1011.59 1010.49 1010.96 1010.63 1010.50 1007.41 1003.48 1003.09 1002.79 1003.09 1003.24 1002.66 1001.93 1002.86 1002.49 1002.05 1001.57 1001.17 1001.14 1000.60 1001.03 1001.13 1000.91 1000.65 999.89 999.83 999.66 999.02 998.76 999.02 999.46 998.24 997.77 998.34 998.69 998.73 998.92 999.30 999.50 999.78
1016.63 1016.29 1015.85 1015.70 1013.53 1011.00 1010.90 1010.67 1010.54 1010.20 1005.19 1002.11 1002.00 1002.40 1001.92 1002.27 1001.61 1002.16 1002.40 1002.04 1001.45 1001.33 1001.55 1000.67 1000.75 1001.21 1000.94 1000.55 1000.53 1000.19 999.82 999.80 999.85 999.48 999.31 998.54 998.17 997.45 997.15 997.82 998.13 998.50 998.27 998.27 998.60
1016.30 1016.12 1015.76 1013.70 1012.80 1011.04 1010.83 1010.54 1010.19 1008.20 1003.12 1001.36 1001.46 1001.58 1001.68 1001.55 1001.21 1001.50 1002.08 1002.33 1001.61 1001.28 1001.63 1000.86 1001.31 1001.21 1000.95 1000.67 1000.72 1000.88 1000.62 1000.55 1000.30 999.76 998.70 998.48 997.77 996.70 997.00 996.87 997.32 997.55 997.60 997.34 997.07
1015.97 1015.91 1015.97 1014.05 1011.11 1011.02 1010.82 1009.87 1008.06 1004.73 1002.14 1001.04 1000.66 1000.69 1000.85 1001.00 1000.87 1001.53 1001.75 1001.96 1001.55 1001.54 1001.07 1001.07 1001.05 1001.13 1000.86 1000.40 1000.88 1000.94 1000.66 1000.03 999.67 999.03 997.98 997.84 997.11 996.39 996.53 996.36 996.53 996.53 996.69 996.37 996.18
1015.72 1015.74 1013.94 1012.97 1011.65 1011.38 1010.65 1008.98 1006.13 1002.66 1001.51 1001.11 1000.62 1000.36 999.92 1000.13 1000.40 1000.89 1001.20 1001.16 1001.54 1000.99 1000.13 999.91 999.95 1000.48 1000.87 1000.61 1000.04 1000.52 1000.38 999.48 998.34 997.65 996.81 996.23 995.77 995.48 995.66 996.01 996.49 996.68 996.32 996.32 996.46
1015.63 1014.09 1012.75 1011.30 1011.37 1011.44 1010.10 1007.16 1004.50 1002.63 1001.89 1001.70 1000.92 1000.24 999.92 999.84 999.98 1000.48 1000.56 1000.53 1000.51 1001.20 1000.68 999.90 999.90 1000.54 1000.82 1000.78 1000.61 999.81 999.66 999.92 999.35 998.87 997.81 996.50 995.06 995.29 995.67 995.92 996.42 996.54 996.17 996.07 996.39
1014.20 1011.78 1010.22 1010.48 1011.21 1010.84 1009.23 1006.29 1004.07 1003.75 1003.67 1002.83 1000.92 1000.04 999.44 999.77 1000.18 1000.22 1000.27 1000.39 1000.33 1000.94 1001.13 1000.73 1000.31 1000.73 1000.87 1001.11 1000.59 1000.28 999.91 1000.00 999.85 999.17 998.05 996.66 995.58 994.78 994.76 995.44 995.71 995.63 995.44 995.62 997.03
1013.82 1010.71 1009.49 1010.10 1010.91 1009.66 1007.46 1005.57 1004.59 1004.10 1004.33 1003.23 1001.37 1000.28 999.44 999.45 999.89 1000.01 1000.08 1001.21 1001.29 1001.73 1001.93 1001.63 1001.51 1000.78 1001.12 1000.80 999.82 1000.19 1000.26 1000.34 1000.08 999.65 998.32 996.95 995.71 995.53 995.74 995.95 996.13 996.33 996.09 996.14 997.39
1011.97 1009.59 1009.50 1009.88 1009.49 1007.75 1006.28 1005.36 1005.24 1004.46 1004.45 1003.70 1003.06 1001.69 1000.26 999.71 999.80 999.78 1000.22 1001.03 1002.30 1002.07 1002.31 1002.31 1002.16 1001.16 1000.34 1000.16 1000.42 1000.45 1000.28 1000.09 999.95 999.98 999.49 998.61 997.27 996.28 996.43 996.60 996.87 996.90 996.83 997.10 998.70
1010.60 1008.68 1009.79 1009.48 1007.58 1006.16 1005.72 1004.93 1005.14 1004.69 1004.07 1003.67 1002.98 1002.53 1001.90 1000.95 1000.25 1000.28 1001.37 1002.86 1003.17 1002.80 1002.68 1003.04 1002.66 1001.79 1000.99 1000.65 1001.00 1000.97 1000.80 1000.92 1001.16 1001.57 1000.45 999.14 997.58 997.00 997.14 997.29 997.06 997.07 997.57 998.54 999.76
1010.05 1008.02 1008.67 1008.91 1007.12 1006.05 1004.99 1005.29 1005.10 1004.99 1004.09 1003.95 1003.26 1003.10 1002.33 1001.44 1001.25 1001.06 1002.31 1003.48 1003.60 1003.81 1004.47 1004.25 1003.15 1002.45 1002.79 1003.25 1002.88 1001.56 1001.32 1001.17 1001.32 1001.59 1000.14 999.07 998.27 998.03 998.07 998.13 998.64 998.51 998.95 999.39 1000.02
1009.44 1006.87 1006.30 1006.71 1006.42 1006.18 1005.53 1004.94 1004.51 1004.43 1004.68 1004.36 1003.80 1003.04 1002.31 1001.67 1001.42 1001.32 1002.47 1003.54 1003.92 1004.66 1004.51 1004.33 1003.77 1003.10 1002.67 1002.41 1002.34 1001.97 1001.65 1001.37 1001.22 1001.17 1000.91 1000.17 999.58 999.24 999.27 999.14 999.39 999.76 1000.26 1000.55 1000.98
1008.84 1007.23 1006.92 1005.93 1005.86 1006.04 1005.75 1005.06 1004.45 1004.19 1004.18 1003.83 1003.81 1003.13 1002.73 1002.08 1001.47 1001.27 1002.14 1002.96 1003.34 1004.26 1004.30 1004.83 1004.34 1004.00 1003.40 1002.70 1002.23 1002.13 1001.87 1001.81 1001.69 1001.49 1001.28 1001.03 1000.62 1001.07 1000.99 1001.12 1000.77 1000.86 1001.52 1001.40 1003.68
1009.25 1008.67 1007.53 1006.08 1006.37 1005.81 1005.17 1005.12 1004.80 1004.41 1004.47 1003.69 1003.70 1003.20 1002.92 1002.58 1002.42 1001.87 1002.16 1002.93 1003.55 1004.04 1004.60 1005.02 1004.66 1004.43 1003.45 1002.81 1002.70 1002.75 1002.34 1002.17 1002.43 1002.75 1002.71 1002.52 1002.78 1003.19 1002.82 1002.51 1002.72 1002.76 1003.22 1004.65 1006.04
Wind_Speed
14 14 14 15 15 16 18 19 18 19 18 16 14 12 10 9 9 10 10 3 6 17 4 14 12 12 14 15 12 12 13 11 5 4 13 13 11 8 8 9 3 6 3 21 18
13 14 15 16 18 18 18 19 19 18 17 16 13 11 9 7 12 16 6 9 11 14 14 15 15 13 13 15 10 14 14 6 9 7 1 12 10 12 9 8 9 7 14 19 18
14 15 15 16 17 19 20 19 20 20 18 17 13 11 8 10 11 6 7 9 10 13 17 13 12 13 17 12 14 15 16 10 7 4 6 9 10 10 9 12 12 13 15 18 17
14 15 15 17 20 20 20 20 19 20 18 17 13 10 6 12 3 9 8 9 9 15 17 12 12 16 17 16 14 15 15 1 7 3 6 7 15 7 3 8 14 16 17 17 18
14 16 16 16 18 21 22 21 20 20 18 16 12 6 8 10 4 12 10 9 13 13 14 14 15 16 16 14 14 14 14 7 4 3 7 4 11 7 6 8 16 17 17 17 16
13 16 17 18 19 19 21 21 20 19 17 14 8 3 9 14 8 15 16 15 14 14 14 14 11 17 12 13 13 14 18 8 6 7 8 10 8 5 11 9 16 17 17 16 16
12 15 17 19 20 22 22 20 18 17 14 10 6 8 13 2 3 13 14 14 13 13 12 12 9 8 13 10 11 12 14 13 11 12 7 12 14 13 15 12 16 16 16 16 15
12 14 16 19 21 22 24 20 18 16 10 7 6 11 11 5 3 11 12 11 8 9 10 7 6 12 14 12 9 14 15 16 16 9 8 14 18 19 13 15 16 16 15 16 17
12 14 16 19 20 23 25 21 17 11 8 7 8 11 7 6 11 11 10 10 10 9 7 3 10 14 14 12 14 15 14 18 11 10 8 15 11 17 17 15 16 16 16 16 17
11 13 15 19 21 24 24 20 3 6 8 9 10 9 9 10 10 10 9 7 12 12 12 13 10 12 13 15 15 17 20 17 15 15 10 14 15 19 14 16 15 16 16 17 17
11 13 15 18 20 24 17 8 5 9 9 16 7 10 3 7 7 11 12 12 15 14 15 17 14 14 18 18 19 13 14 20 9 8 17 17 15 11 17 14 15 16 17 17 18
11 13 16 19 20 22 15 8 6 7 12 15 14 12 8 2 11 14 15 14 13 16 18 11 16 15 14 8 12 12 16 16 13 14 8 16 17 16 17 16 15 14 16 17 18
10 12 15 19 22 11 5 6 8 8 9 7 10 16 14 13 13 18 18 18 14 18 17 16 7 15 3 10 12 16 18 15 18 10 13 17 19 15 13 11 15 15 14 18 19
10 12 13 23 6 8 3 7 9 5 8 14 12 10 10 15 14 13 19 15 12 14 12 13 14 6 10 14 12 15 15 17 18 12 11 18 15 17 17 16 17 13 15 17 19
10 11 12 6 13 8 8 9 9 6 8 15 12 10 14 18 14 11 16 15 14 9 4 13 11 11 14 14 13 14 12 11 17 15 15 23 14 13 12 19 18 18 19 18 19
10 10 12 7 10 7 9 9 6 9 6 9 10 13 17 20 12 20 15 10 10 9 13 9 3 10 16 12 6 10 9 11 15 16 18 20 21 14 13 15 16 19 18 22 20
10 9 8 9 8 9 9 8 9 12 7 9 15 15 19 15 15 14 19 17 11 9 13 14 13 10 10 11 10 11 11 10 12 13 16 19 22 18 18 19 15 14 16 18 18
11 8 10 10 8 8 8 9 11 10 8 5 2 9 14 19 17 17 19 16 17 15 15 13 15 16 10 14 11 15 14 12 13 12 13 22 20 17 16 8 9 18 17 15 13
6 10 12 10 6 5 9 12 12 12 6 3 12 12 15 14 11 15 15 17 17 12 13 6 4 4 5 12 13 12 16 15 17 17 14 13 11 4 10 9 11 16 15 12 10
9 11 12 10 6 7 9 16 16 2 5 10 13 15 15 14 12 13 14 9 5 13 11 5 5 9 9 9 10 14 6 10 9 14 15 13 13 10 11 10 9 11 8 4 7
9 8 9 9 7 8 11 16 16 4 5 8 8 5 11 17 15 16 14 8 5 12 8 9 8 9 8 12 15 9 13 12 13 11 12 9 7 13 12 10 11 13 14 13 9
11 12 9 9 10 10 13 18 6 7 10 7 6 11 6 2 13 13 9 6 2 6 13 7 6 11 12 4 6 10 14 10 7 9 11 12 13 17 9 5 11 15 16 11 8
10 7 5 8 11 12 13 9 8 12 11 9 7 7 5 9 7 4 13 6 6 7 4 5 7 10 14 11 10 9 9 7 4 7 12 12 9 9 12 11 11 10 11 9 4
10 8 7 8 13 11 14 12 15 12 11 8 5 4 8 5 6 8 14 5 5 5 4 3 3 11 8 5 9 6 5 6 5 6 11 11 10 10 11 15 14 17 13 8 6
5 9 7 12 12 11 10 9 14 12 12 13 9 10 10 9 12 13 14 11 9 6 4 4 7 10 11 8 11 11 11 10 12 12 12 14 16 14 18 5 7 8 7 4 5
6 4 3 4 11 13 8 12 14 14 13 13 12 12 5 8 8 11 14 12 9 9 6 3 6 7 12 14 13 13 11 11 13 14 15 14 12 18 16 16 20 12 11 3 20
2 5 7 10 9 11 11 12 12 9 10 13 16 13 10 9 4 7 6 6 4 4 5 3 7 4 12 11 1 10 7 5 8 11 14 13 19 18 16 15 11 10 14 16 17
Wind_Direction
337 333 328 325 324 318 318 316 316 318 317 317 313 305 294 288 278 222 231 343 168 166 235 180 207 214 231 235 240 243 263 220 137 188 105 124 134 95 83 127 93 61 278 139 147
329 328 327 325 324 323 318 317 317 316 316 315 312 302 291 277 255 247 103 102 144 160 202 186 196 200 212 224 214 239 242 65 26 19 190 136 145 117 178 140 117 118 95 128 159
327 327 326 326 322 320 318 318 317 316 318 316 314 300 284 269 263 94 153 126 178 194 215 209 209 206 225 222 214 227 263 92 145 42 289 137 134 116 231 168 137 143 144 152 167
327 325 327 326 322 321 318 317 316 313 316 314 312 296 274 250 313 82 138 149 191 215 232 216 230 210 230 212 220 250 255 284 77 122 210 202 112 137 303 41 99 140 152 159 172
321 323 324 321 318 318 315 316 314 311 313 310 304 284 262 234 66 124 143 160 187 216 215 208 211 213 221 209 216 227 253 218 197 238 250 179 150 162 163 101 122 144 155 164 176
319 321 321 320 317 314 309 311 308 306 306 300 294 272 252 265 93 138 161 173 199 216 214 215 215 220 256 239 223 215 266 212 230 238 197 237 156 180 138 141 139 156 164 171 180
312 314 318 319 315 314 310 308 301 301 298 290 273 269 269 317 91 159 175 198 213 219 217 221 246 202 231 244 241 263 249 239 236 233 211 241 190 185 141 163 154 170 171 173 189
309 312 314 311 313 311 309 305 301 295 275 264 256 267 275 98 183 181 190 197 206 223 241 204 255 247 260 243 218 226 239 236 218 196 202 215 216 172 149 172 167 180 178 180 189
301 306 310 310 312 310 308 302 291 268 233 228 241 227 236 134 197 184 199 195 193 198 224 191 234 231 214 243 226 211 226 230 191 194 207 216 223 179 161 185 174 185 185 192 187
293 300 305 306 312 312 307 291 259 229 223 225 263 258 213 204 144 169 193 250 189 185 192 210 216 220 236 215 224 211 223 224 241 165 230 212 258 138 170 185 190 185 195 196 196
295 302 304 308 313 309 319 290 250 188 266 287 317 262 120 115 157 193 187 206 195 195 207 206 218 215 219 225 246 253 258 224 223 212 190 240 223 180 167 203 208 187 195 204 207
294 302 307 311 311 308 287 12 34 335 297 278 255 243 288 349 194 189 179 204 196 206 215 184 233 240 237 254 243 280 259 269 241 199 208 229 245 238 184 193 218 209 200 208 206
287 298 307 310 314 288 333 14 307 307 264 272 211 220 200 207 223 177 195 219 200 216 200 230 232 224 186 222 242 238 248 240 260 175 231 253 245 233 245 260 209 216 230 210 210
277 294 311 317 296 340 255 340 321 340 267 158 187 198 181 201 219 188 197 210 211 232 207 234 255 245 208 241 224 245 225 257 261 243 222 223 255 234 225 238 249 249 232 237 224
269 288 305 330 312 296 2 318 331 246 259 150 131 121 182 204 169 194 189 220 237 215 223 223 223 195 226 230 227 257 288 234 255 258 252 262 229 266 252 212 228 241 250 235 232
258 281 312 230 238 269 313 308 256 232 243 151 142 177 180 210 174 161 190 241 258 219 225 284 232 221 237 242 243 264 249 252 251 246 244 245 262 238 233 239 221 239 243 252 238
250 268 271 313 283 344 310 260 231 247 112 153 179 171 184 187 190 170 190 198 206 204 220 216 200 227 260 205 198 232 224 223 218 224 248 247 245 252 262 271 257 245 254 270 266
253 274 235 250 291 295 274 234 249 211 225 41 287 192 200 176 201 192 195 205 218 222 270 202 199 195 187 236 208 204 242 256 256 239 250 220 234 250 251 313 281 299 289 285 292
265 235 242 218 228 263 252 228 219 261 5 238 187 203 205 182 199 195 216 213 197 221 256 214 225 111 222 218 251 226 223 245 276 281 275 280 307 240 247 239 226 242 249 256 233
241 232 229 147 198 228 239 251 255 59 342 252 250 211 181 189 208 201 190 200 196 192 246 305 210 188 168 243 248 268 313 236 230 262 275 277 252 263 190 208 233 287 292 53 61
245 217 112 168 195 220 234 231 229 173 276 270 260 234 256 181 209 200 172 140 226 190 214 244 260 153 171 216 238 181 233 244 280 305 306 285 253 57 24 349 333 315 302 348 30
243 222 138 174 209 222 233 234 10 254 210 254 295 303 267 194 217 196 142 140 181 172 208 207 261 253 212 75 8 323 316 324 250 232 242 276 293 313 323 335 320 313 300 10 13
232 187 158 216 226 227 217 237 218 233 221 213 227 268 273 219 234 169 95 88 170 211 38 145 219 242 242 192 209 231 237 267 278 317 278 301 304 351 348 312 327 321 342 337 13
229 183 147 208 259 296 201 207 216 230 230 214 271 239 206 192 243 158 121 129 142 94 359 301 267 281 103 238 269 267 260 210 222 283 285 255 314 320 335 28 352 353 5 311 118
251 210 174 184 211 218 263 218 208 189 218 206 221 243 210 207 189 182 147 149 157 147 195 303 267 275 293 262 247 272 275 285 268 245 253 292 306 318 339 77 339 23 333 324 94
237 246 164 124 205 201 161 225 214 207 189 202 229 196 215 233 216 158 147 185 174 173 175 150 285 293 292 289 278 278 274 272 273 282 281 290 267 15 1 1 348 6 330 83 59
108 316 275 126 189 202 196 224 213 215 204 228 203 231 201 223 28 359 83 78 100 171 175 240 306 261 277 288 300 262 273 342 357 339 334 325 357 355 337 343 343 344 59 76 90